Weather History for Selawik, AK

Change the Weather History Date:

Monday, October 15, 2012

  Actual Average Record
Temperature  
Mean Temperature 22 °F -  
Max Temperature 26 °F 23 °F 42 °F (2013)
Min Temperature 17 °F 15 °F 0 °F (1996)
Degree Days  
Heating Degree Days 44    
Moisture  
Dew Point 9 °F    
Average Humidity 60    
Maximum Humidity 73    
Minimum Humidity 43    
Precipitation  
Precipitation 0.00 in - - ()
Sea Level Pressure  
Sea Level Pressure 29.53 in    
Wind  
Wind Speed 10 mph (NNW)    
Max Wind Speed 17 mph    
Max Gust Speed 23 mph    
Visibility 10 miles    
Events      
Averages and records for this station are not official NWS values.
T = Trace of Precipitation, MM = Missing Value Source: NWS Daily Summary

Daily Weather History Graph

Daily Weather History Graph

Search for Another Location

Airport:

Trip Planner

Search our weather history database for the weather conditions in past years. The results will help you decide how hot, cold, wet, or windy it might be!

Date:

Astronomy

Oct. 15, 2012 Rise Set
Actual Time 9:40 AM AKDT 7:08 PM AKDT
Civil Twilight 8:46 AM AKDT 8:02 PM AKDT
Nautical Twilight 7:46 AM AKDT 9:02 PM AKDT
Astronomical Twilight 6:43 AM AKDT 10:04 PM AKDT
Moon 10:41 AM AKDT (10/15) 6:31 PM AKDT (10/15)
Length of Visible Light 11h 15m
Length of Day
9h 27m
New Moon, 0% of the Moon is Illuminated
Oct 15
New Moon
Oct 21
First Quarter
Oct 29
Full
Nov 6
Last Quarter
Nov 13
New

Hourly Weather History & Observations

Time (AKDT) Temp. Windchill Dew Point Humidity Pressure Visibility Wind Dir Wind Speed Gust Speed Precip Events Conditions
12:16 AM 21.2 °F 11.7 °F 12.2 °F 68% 29.50 in 10.0 mi North 8.1 mph - N/A   Clear
12:36 AM 21.2 °F 11.7 °F 12.2 °F 68% 29.50 in 10.0 mi NNW 8.1 mph - N/A   Clear
12:56 AM 21.2 °F 10.9 °F 12.2 °F 68% 29.50 in 10.0 mi NNW 9.2 mph - N/A   Clear
1:16 AM 19.4 °F 9.5 °F 10.4 °F 68% 29.50 in 10.0 mi NNW 8.1 mph - N/A   Clear
1:36 AM 21.2 °F 9.5 °F 12.2 °F 68% 29.50 in 10.0 mi NNW 11.5 mph - N/A   Clear
1:56 AM 21.2 °F 11.7 °F 10.4 °F 63% 29.51 in 10.0 mi NW 8.1 mph - N/A   Clear
2:16 AM 21.2 °F 12.6 °F 10.4 °F 63% 29.51 in 10.0 mi NW 6.9 mph - N/A   Clear
2:36 AM 19.4 °F 8.6 °F 10.4 °F 68% 29.51 in 10.0 mi WNW 9.2 mph - N/A   Clear
2:56 AM 19.4 °F 8.6 °F 10.4 °F 68% 29.51 in 10.0 mi WNW 9.2 mph - N/A   Clear
3:16 AM 19.4 °F 9.5 °F 8.6 °F 63% 29.51 in 10.0 mi NW 8.1 mph - N/A   Clear
3:56 AM 19.4 °F 10.4 °F 8.6 °F 63% 29.51 in 10.0 mi NW 6.9 mph - N/A   Clear
4:16 AM 17.6 °F 6.4 °F 8.6 °F 68% 29.51 in 10.0 mi NW 9.2 mph - N/A   Clear
4:36 AM 17.6 °F 7.3 °F 10.4 °F 73% 29.51 in 10.0 mi WNW 8.1 mph - N/A   Clear
4:56 AM 19.4 °F 7.9 °F 10.4 °F 68% 29.51 in 10.0 mi NNW 10.4 mph - N/A   Clear
5:16 AM 19.4 °F 7.9 °F 10.4 °F 68% 29.50 in 10.0 mi NNW 10.4 mph 17.3 mph N/A   Clear
5:36 AM 19.4 °F 8.6 °F 10.4 °F 68% 29.51 in 10.0 mi NNW 9.2 mph - N/A   Clear
5:56 AM 19.4 °F 7.9 °F 8.6 °F 63% 29.50 in 10.0 mi NW 10.4 mph - N/A   Clear
6:16 AM 19.4 °F 7.2 °F 8.6 °F 63% 29.50 in 10.0 mi NNW 11.5 mph - N/A   Clear
6:36 AM 19.4 °F 7.9 °F 8.6 °F 63% 29.50 in 10.0 mi NNW 10.4 mph - N/A   Clear
6:56 AM 19.4 °F 7.9 °F 10.4 °F 68% 29.51 in 10.0 mi NNW 10.4 mph - N/A   Clear
7:16 AM 19.4 °F 7.9 °F 10.4 °F 68% 29.51 in 10.0 mi NNW 10.4 mph - N/A   Clear
7:36 AM 19.4 °F 9.5 °F 8.6 °F 63% 29.51 in 10.0 mi NNW 8.1 mph - N/A   Clear
7:56 AM 17.6 °F 9.3 °F 6.8 °F 63% 29.52 in 10.0 mi NNW 5.8 mph - N/A   Clear
8:16 AM 17.6 °F 12.3 °F 8.6 °F 68% 29.52 in 10.0 mi NW 3.5 mph - N/A   Clear
8:36 AM 17.6 °F 8.2 °F 8.6 °F 68% 29.52 in 10.0 mi NW 6.9 mph - N/A   Clear
8:56 AM 17.6 °F 8.2 °F 10.4 °F 73% 29.52 in 10.0 mi NW 6.9 mph - N/A   Clear
9:16 AM 19.4 °F 9.5 °F 10.4 °F 68% 29.53 in 10.0 mi NNW 8.1 mph - N/A   Clear
9:36 AM 19.4 °F 8.6 °F 10.4 °F 68% 29.53 in 10.0 mi NW 9.2 mph - N/A   Clear
9:56 AM 17.6 °F 7.3 °F 8.6 °F 68% 29.53 in 10.0 mi NW 8.1 mph - N/A   Clear
10:16 AM 19.4 °F 8.6 °F 8.6 °F 63% 29.53 in 10.0 mi NNW 9.2 mph - N/A   Clear
10:36 AM 19.4 °F 9.5 °F 8.6 °F 63% 29.53 in 10.0 mi NNW 8.1 mph - N/A   Clear
10:56 AM 19.4 °F 7.2 °F 10.4 °F 68% 29.53 in 10.0 mi NNW 11.5 mph - N/A   Clear
11:16 AM 19.4 °F 6.6 °F 10.4 °F 68% 29.53 in 10.0 mi NNW 12.7 mph - N/A   Clear
11:36 AM 21.2 °F 9.5 °F 10.4 °F 63% 29.53 in 10.0 mi NNW 11.5 mph - N/A   Clear
11:56 AM 21.2 °F 8.9 °F 10.4 °F 63% 29.54 in 10.0 mi NNW 12.7 mph 18.4 mph N/A   Clear
12:16 PM 23.0 °F 10.6 °F 8.6 °F 54% 29.55 in 10.0 mi NNW 13.8 mph - N/A   Clear
12:36 PM 23.0 °F 10.1 °F 8.6 °F 54% 29.54 in 10.0 mi NW 15.0 mph - N/A   Clear
1:16 PM 24.8 °F 11.5 °F 8.6 °F 50% 29.54 in 10.0 mi NNW 17.3 mph 20.7 mph N/A   Clear
1:36 PM 24.8 °F 12.9 °F 8.6 °F 50% 29.54 in 10.0 mi NW 13.8 mph - N/A   Clear
1:56 PM 24.8 °F 12.9 °F 10.4 °F 54% 29.54 in 10.0 mi NW 13.8 mph 19.6 mph N/A   Clear
2:16 PM 24.8 °F 12.9 °F 8.6 °F 50% 29.54 in 10.0 mi NNW 13.8 mph - N/A   Clear
2:36 PM 26.6 °F 14.7 °F 8.6 °F 47% 29.54 in 10.0 mi NNW 15.0 mph - N/A   Clear
2:56 PM 26.6 °F 14.7 °F 8.6 °F 47% 29.54 in 10.0 mi NNW 15.0 mph 18.4 mph N/A   Clear
3:16 PM 26.6 °F 15.7 °F 8.6 °F 47% 29.54 in 10.0 mi North 12.7 mph 16.1 mph N/A   Clear
3:36 PM 26.6 °F 14.7 °F 8.6 °F 47% 29.55 in 10.0 mi North 15.0 mph 20.7 mph N/A   Clear
3:56 PM 26.6 °F 14.7 °F 6.8 °F 43% 29.54 in 10.0 mi North 15.0 mph 20.7 mph N/A   Clear
4:16 PM 26.6 °F 14.7 °F 6.8 °F 43% 29.54 in 10.0 mi North 15.0 mph 20.7 mph N/A   Clear
4:36 PM 26.6 °F 15.2 °F 6.8 °F 43% 29.54 in 10.0 mi North 13.8 mph 20.7 mph N/A   Clear
4:56 PM 26.6 °F 14.7 °F 6.8 °F 43% 29.55 in 10.0 mi North 15.0 mph 23.0 mph N/A   Clear
5:16 PM 26.6 °F 15.2 °F 6.8 °F 43% 29.54 in 10.0 mi North 13.8 mph 20.7 mph N/A   Clear
5:36 PM 26.6 °F 15.2 °F 6.8 °F 43% 29.54 in 10.0 mi North 13.8 mph 20.7 mph N/A   Clear
5:56 PM 24.8 °F 12.9 °F 6.8 °F 46% 29.55 in 10.0 mi North 13.8 mph - N/A   Clear
6:16 PM 24.8 °F 14.0 °F 6.8 °F 46% 29.55 in 10.0 mi North 11.5 mph - N/A   Clear
6:36 PM 24.8 °F 11.9 °F 8.6 °F 50% 29.55 in 10.0 mi NNW 16.1 mph 21.9 mph N/A   Clear
6:56 PM 24.8 °F 12.9 °F 8.6 °F 50% 29.55 in 10.0 mi NNW 13.8 mph 19.6 mph N/A   Clear
7:16 PM 23.0 °F 10.6 °F 8.6 °F 54% 29.56 in 10.0 mi NNW 13.8 mph - N/A   Clear
7:36 PM 23.0 °F 11.7 °F 8.6 °F 54% 29.56 in 10.0 mi NNW 11.5 mph - N/A   Clear
7:56 PM 21.2 °F 10.1 °F 10.4 °F 63% 29.57 in 10.0 mi NNW 10.4 mph - N/A   Clear
8:16 PM 21.2 °F 8.9 °F 10.4 °F 63% 29.57 in 10.0 mi NNW 12.7 mph - N/A   Clear
8:36 PM 21.2 °F 8.9 °F 8.6 °F 58% 29.56 in 10.0 mi NNW 12.7 mph 19.6 mph N/A   Clear
8:56 PM 21.2 °F 9.5 °F 10.4 °F 63% 29.56 in 10.0 mi NNW 11.5 mph - N/A   Clear
9:16 PM 21.2 °F 10.1 °F 10.4 °F 63% 29.56 in 10.0 mi NNW 10.4 mph 16.1 mph N/A   Clear
9:36 PM 21.2 °F 8.3 °F 10.4 °F 63% 29.56 in 10.0 mi NNW 13.8 mph 18.4 mph N/A   Clear
9:56 PM 21.2 °F 9.5 °F 10.4 °F 63% 29.57 in 10.0 mi NNW 11.5 mph - N/A   Clear
10:16 PM 21.2 °F 9.5 °F 10.4 °F 63% 29.56 in 10.0 mi NNW 11.5 mph - N/A   Clear
10:36 PM 21.2 °F 8.9 °F 10.4 °F 63% 29.56 in 10.0 mi NNW 12.7 mph - N/A   Clear
10:56 PM 21.2 °F 8.3 °F 10.4 °F 63% 29.56 in 10.0 mi NNW 13.8 mph - N/A   Clear
11:16 PM 21.2 °F 8.3 °F 10.4 °F 63% 29.56 in 10.0 mi NNW 13.8 mph 19.6 mph N/A   Clear
11:36 PM 21.2 °F 8.3 °F 10.4 °F 63% 29.55 in 10.0 mi NNW 13.8 mph 18.4 mph N/A   Clear
11:56 PM 21.2 °F 8.9 °F 10.4 °F 63% 29.56 in 10.0 mi NNW 12.7 mph 19.6 mph N/A   Clear